This demonstration page uses our WeatherBlox Daily Observations layout. Learn more.

Left ArrowRight Arrow

39.92423, -83.80882

Hourly Observations for April 21, 2022

Temp ( °F °C ) Dew Point ( °F °C ) Humidity (%) Winds ( mph kmh ) Pressure ( in mb ) Visibility ( mi km ) Precip ( " mm )
12:56 am 00:56 Mostly Cloudy 55 12.8 33 0.6 44 44 S 12 19 30.12 1020 10 16 0.00 0.00
1:56 am 01:56 Cloudy 56 13.3 34 1.1 44 44 S 12 19 30.10 1019 10 16 0.00 0.00
2:56 am 02:56 Cloudy 61 16.1 37 2.8 41 41 SSW 20 31 30.07 1018 10 16 0.00 0.00
3:56 am 03:56 Cloudy with Rain 54 12.2 49 9.4 83 83 SW 22 35 30.09 1019 10 16 0.00 0.00
4:56 am 04:56 Cloudy with Rain 52 11.1 52 11.1 100 100 S 14 22 30.06 1018 10 16 0.00 0.00
5:56 am 05:56 Cloudy with Light Rain 54 12.2 49 9.4 83 83 SSW 14 22 30.04 1017 10 16 0.00 0.00
6:56 am 06:56 Cloudy with Light Rain 53 11.7 51 10.6 93 93 SW 13 20 30.10 1019 10 16 0.00 0.00
7:56 am 07:56 Cloudy with Haze 52 11 N/A N/A SW 17 28 30.14 1021 6 10 0.00 0.00
8:14 am 08:14 Cloudy with Light Rain 52 11 N/A N/A SW 17 28 30.15 1021 4 6 0.00 0.00
8:23 am 08:23 Cloudy with Light Rain 52 11 N/A N/A SW 15 24 30.15 1021 3 5 0.00 0.00
8:56 am 08:56 Cloudy with Haze N/A N/A N/A SW 16 26 N/A 6 10 0.00 0.00
9:56 am 09:56 Cloudy with Haze N/A N/A N/A SW 22 35 N/A 5 8 0.00 0.00
10:56 am 10:56 Cloudy with Haze N/A N/A N/A SW 16 26 N/A 4 6 0.00 0.00
11:56 am 11:56 Cloudy 55 13 N/A N/A WSW 18 30 30.23 1024 8 13 0.00 0.00
12:56 pm 12:56 Cloudy 55 13 N/A N/A WSW 16 26 30.24 1024 10 16 0.00 0.00
1:56 pm 13:56 Cloudy 57 14 N/A N/A WSW 16 26 30.25 1024 10 16 0.00 0.00
2:56 pm 14:56 Cloudy 59 15 N/A N/A W 17 28 30.26 1025 10 16 0.00 0.00
3:20 pm 15:20 Cloudy 61 16 61 16 100 100 W 15 24 30.26 1025 10 16 0.00 0.00
3:43 pm 15:43 Cloudy 63 17 59 15 88 88 W 18 30 30.25 1024 10 16 0.00 0.00
3:53 pm 15:53 Cloudy 61 16 59 15 94 94 W 14 22 30.26 1025 10 16 0.00 0.00
3:56 pm 15:56 Cloudy 61 16.1 59 15 93 93 W 14 22 30.27 1025 10 16 0.00 0.00
4:56 pm 16:56 Partly Cloudy 64 17.8 56 13.3 75 75 WSW 13 20 30.28 1025 10 16 0.00 0.00
5:56 pm 17:56 Partly Cloudy 65 18.3 54 12.2 68 68 W 12 19 30.29 1026 10 16 0.00 0.00
6:56 pm 18:56 Mostly Sunny 64 17.8 54 12.2 70 70 WSW 8 13 30.32 1027 10 16 0.00 0.00
7:56 pm 19:56 Sunny 60 15.6 54 12.2 80 80 SW 6 9 30.33 1027 10 16 0.00 0.00
8:56 pm 20:56 Mostly Clear 57 13.9 54 12.2 90 90 SSW 6 9 30.34 1027 10 16 0.00 0.00
9:56 pm 21:56 Clear 56 13.3 56 13.3 100 100 SSW 6 9 30.35 1028 10 16 0.00 0.00
10:56 pm 22:56 Clear 55 13 N/A N/A SSW 8 13 30.37 1028 10 16 0.00 0.00
11:56 pm 23:56 Clear 52 11 N/A N/A SW 6 9 30.39 1029 10 16 0.00 0.00

Powered by AerisWeather